This is the latest recevied weather packets stored in our database for station/object N5VIS. If no packets are shown the sender has not sent any weather packets the latest 10 day(s).
| Time | Temp. | Humidity | Pressure | Rain* | Wind** | Luminosity | Snow |
|---|---|---|---|---|---|---|---|
| 1777570570 | 26.11° C | 74% | 1012.6 hPa | 0 mm | - | - | - |
| 1777570268 | 25.56° C | 75% | 1012.8 hPa | 0 mm | - | - | - |
| 1777569962 | 25.56° C | 76% | 1012.8 hPa | 0 mm | - | - | - |
| 1777569659 | 25.56° C | 74% | 1012.8 hPa | 0 mm | - | - | - |
| 1777569354 | 25.56° C | 75% | 1012.9 hPa | 0 mm | - | - | - |
| 1777569051 | 26.11° C | 74% | 1012.7 hPa | 0 mm | - | - | - |
| 1777568748 | 26.11° C | 74% | 1012.9 hPa | 0 mm | - | - | - |
| 1777568446 | 26.67° C | 73% | 1012.9 hPa | 0 mm | - | - | - |
| 1777568142 | 26.67° C | 73% | 1012.8 hPa | 0 mm | - | - | - |
| 1777567839 | 25.56° C | 75% | 1013 hPa | 0 mm | - | - | - |
| 1777567535 | 26.11° C | 74% | 1013.2 hPa | 0 mm | - | - | - |
| 1777567232 | 25.56° C | 75% | 1012.9 hPa | 0 mm | - | - | - |
| 1777566931 | 26.11° C | 74% | 1013.1 hPa | 0 mm | - | - | - |
| 1777566628 | 25.56° C | 75% | 1012.9 hPa | 0 mm | - | - | - |
| 1777566326 | 25.56° C | 74% | 1013.1 hPa | 0 mm | - | - | - |
| 1777566023 | 25.56° C | 76% | 1013.2 hPa | 0 mm | - | - | - |
| 1777565718 | 25.56° C | 75% | 1013.3 hPa | 0 mm | - | - | - |
| 1777565415 | 25.56° C | 75% | 1013.3 hPa | 0 mm | - | - | - |
| 1777565111 | 25.56° C | 75% | 1013.5 hPa | 0 mm | - | - | - |
| 1777564808 | 25.56° C | 76% | 1013.7 hPa | 0 mm | - | - | - |
| 1777564503 | 25.56° C | 76% | 1013.6 hPa | 0 mm | - | - | - |
| 1777564198 | 25° C | 76% | 1013.6 hPa | 0 mm | - | - | - |
| 1777563894 | 25.56° C | 76% | 1013.7 hPa | 0 mm | - | - | - |
| 1777563590 | - | - | - | 0 mm | - | - | - |
| 1777563290 | 24.44° C | 77% | 1013.9 hPa | 0 mm | - | - | - |
* Rain latest hour (hover to see other rain measurements)
** Current wind speed in m/s (hover to see current wind gust speed)